Location: Bühlhof
(48.7849°N, 8.6361°E)
Time: 06:29:55
(UTC+00:00)

Cosmos 2082 Rocket - Pass Details

Date: 19 January 2026
Orbit: 831 x 853 km, 71.0° (Epoch: 18 February)

Event Time Altitude Azimuth Distance (km) Brightness Sun altitude
Rises 18:46:59 0° 183° (S) 3,361 5.4 -26.6°
Reaches altitude 10° 18:49:31 10° 176° (S) 2,433 4.5 -27.0°
Enters shadow 18:50:13 14° 173° (S) 2,193 4.3 -27.1°
